Terminal Aerodrome Forecast
Issued by NWS Mobile, AL

Home | Current Version | Previous Version | Text Only | Print | Product List | Glossary On
Versions: 1 2 3 4 5 6 7 8 9 10 11 12 13 14 15 16 17 18 19 20 21 22 23 24 25 26 27 28 29 30 31 32 33 34 35 36 37 38
000
FTUS44 KMOB 261100 RRA
TAFMOB
TAF
KMOB 261143Z 2612/2712 27004KT P6SM FEW090 SCT250
     FM261800 23007KT P6SM VCTS SCT040CB
     FM270000 21005KT P6SM SCT050=

USA.gov is the U.S. government's official web portal to all federal, state and local government web resources and services.